Ionia, MI

12:03 AM EDT on June 25, 2017 (GMT -0400)
Ionia

Weather History for KY70 - December, 2011

Change the Weather History Date:

Friday, December 9, 2011

  Actual Average (KGRR) Record (KGRR)
Temperature  
Mean Temperature 27 °F -  
Max Temperature 32 °F 35 °F 59 °F (1946)
Min Temperature 22 °F 23 °F -1 °F (1964)
Degree Days  
Heating Degree Days 38    
Moisture  
Dew Point 19 °F    
Average Humidity 73    
Maximum Humidity 93    
Minimum Humidity 50    
Precipitation  
Precipitation 0.00 in - - ()
Sea Level Pressure  
Sea Level Pressure 30.17 in    
Wind  
Wind Speed 10 mph (West)    
Max Wind Speed 16 mph    
Max Gust Speed 23 mph    
Visibility 8 miles    
Events Snow    
Averages and records for this station are not official NWS values.
T = Trace of Precipitation, MM = Missing Value Source: NWS Daily Summary

Daily Weather History Graph

Daily Weather History Graph

Search for Another Location

Airport or City:

Trip Planner

Search our weather history database for the weather conditions in past years. The results will help you decide how hot, cold, wet, or windy it might be!

Date:

Astronomy

Dec. 09, 2011 Rise Set
Actual Time 7:59 AM EST 5:05 PM EST
Civil Twilight 7:27 AM EST 5:37 PM EST
Nautical Twilight 6:51 AM EST 6:13 PM EST
Astronomical Twilight 6:17 AM EST 6:47 PM EST
Moon 4:28 PM EST (12/9) 7:06 AM EST (12/9)
Length of Visible Light 10h 10m
Length of Day
9h 06m
Waxing Gibbous, 99% of the Moon is Illuminated
Dec 9
Waxing Gibbous
Dec 10
Full
Dec 17
Last Quarter
Dec 24
New
Jan 1
First Quarter

Hourly Weather History & Observations

Time (EST) Temp. Windchill Dew Point Humidity Pressure Visibility Wind Dir Wind Speed Gust Speed Precip Events Conditions
12:13 AM 32.0 °F 24.2 °F 25.7 °F 78% 30.11 in 10.0 mi SW 9.2 mph - N/A   Overcast
12:33 AM 32.0 °F 24.2 °F 25.7 °F 78% 30.11 in 10.0 mi SW 9.2 mph - N/A   Overcast
12:53 AM 32.0 °F 24.2 °F 25.7 °F 78% 30.11 in 10.0 mi SW 9.2 mph - N/A   Overcast
1:13 AM 32.0 °F 24.2 °F 25.7 °F 78% 30.10 in 10.0 mi SW 9.2 mph - N/A   Overcast
1:33 AM 32.0 °F 23.0 °F 25.7 °F 78% 30.10 in 10.0 mi WSW 11.5 mph - N/A   Overcast
1:53 AM 32.0 °F 23.6 °F 27.0 °F 82% 30.10 in 5.0 mi WSW 10.4 mph - N/A Snow Light Snow
2:13 AM 31.8 °F 26.2 °F 27.7 °F 85% 30.10 in 5.0 mi WSW 5.8 mph - N/A Snow Light Snow
2:33 AM 31.1 °F 23.1 °F 28.2 °F 89% 30.10 in 5.0 mi WSW 9.2 mph - N/A Snow Light Snow
2:53 AM 30.9 °F 24.3 °F 28.4 °F 90% 30.11 in 3.0 mi WSW 6.9 mph - N/A Snow Light Snow
3:13 AM 30.6 °F 23.1 °F 28.8 °F 93% 30.11 in 3.0 mi SW 8.1 mph - N/A Snow Light Snow
3:34 AM 30.2 °F 22.6 °F 28.4 °F 93% 30.12 in 4.0 mi WSW 8.1 mph - N/A Snow Light Snow
3:53 AM 30.4 °F 21.5 °F 28.6 °F 93% 30.12 in 5.0 mi WSW 10.4 mph - N/A   Overcast
4:13 AM 29.8 °F 21.5 °F 26.4 °F 87% 30.12 in 5.0 mi WNW 9.2 mph - N/A Snow Light Snow
4:33 AM 29.3 °F 22.3 °F 26.2 °F 88% 30.12 in 4.0 mi WNW 6.9 mph - N/A Snow Light Snow
4:53 AM 28.8 °F 20.2 °F 25.7 °F 88% 30.12 in 4.0 mi WNW 9.2 mph - N/A Snow Light Snow
5:13 AM 28.0 °F 19.3 °F 23.7 °F 84% 30.12 in 7.0 mi NW 9.2 mph - N/A Snow Light Snow
5:33 AM 27.9 °F 18.4 °F 22.8 °F 81% 30.13 in 10.0 mi WNW 10.4 mph - N/A   Overcast
5:53 AM 27.3 °F 18.4 °F 22.6 °F 83% 30.13 in 5.0 mi WNW 9.2 mph - N/A Snow Light Snow
6:13 AM 26.6 °F 18.2 °F 22.8 °F 86% 30.13 in 5.0 mi WNW 8.1 mph - N/A Snow Light Snow
6:33 AM 26.6 °F 19.1 °F 23.4 °F 88% 30.14 in 5.0 mi WNW 6.9 mph - N/A Snow Light Snow
6:53 AM 26.6 °F 16.2 °F 22.8 °F 86% 30.15 in 7.0 mi West 11.5 mph - N/A Snow Light Snow
7:13 AM 25.9 °F 16.6 °F 22.3 °F 86% 30.15 in 2.5 mi West 9.2 mph - N/A Snow Light Snow
7:33 AM 25.5 °F 16.9 °F 22.1 °F 87% 30.15 in 4.0 mi WNW 8.1 mph - N/A Snow Light Snow
8:13 AM 25.0 °F 15.5 °F 21.6 °F 87% 30.16 in 3.0 mi West 9.2 mph - N/A Snow Light Snow
8:33 AM 24.8 °F 16.1 °F 21.6 °F 87% 30.17 in 2.0 mi West 8.1 mph - N/A Snow Light Snow
8:53 AM 24.8 °F 15.3 °F 21.6 °F 87% 30.17 in 2.5 mi West 9.2 mph - N/A Snow Light Snow
9:13 AM 25.2 °F 17.3 °F 21.7 °F 87% 30.17 in 5.0 mi West 6.9 mph - N/A Snow Light Snow
9:33 AM 25.5 °F 17.8 °F 22.1 °F 87% 30.18 in 2.5 mi West 6.9 mph - N/A Snow Light Snow
9:53 AM 25.5 °F 16.2 °F 21.7 °F 86% 30.19 in 4.0 mi West 9.2 mph - N/A Snow Light Snow
10:13 AM 25.9 °F 16.6 °F 21.2 °F 82% 30.19 in 10.0 mi West 9.2 mph - N/A   Overcast
10:33 AM 27.5 °F 18.6 °F 20.7 °F 75% 30.20 in 10.0 mi West 9.2 mph - N/A   Mostly Cloudy
10:53 AM 27.5 °F 17.4 °F 18.7 °F 69% 30.20 in 10.0 mi WNW 11.5 mph 17.3 mph N/A   Overcast
11:13 AM 26.8 °F 15.4 °F 16.5 °F 65% 30.20 in 10.0 mi West 13.8 mph 18.4 mph N/A   Overcast
11:34 AM 27.0 °F 16.7 °F 14.9 °F 60% 30.20 in 10.0 mi WNW 11.5 mph 17.3 mph N/A   Scattered Clouds
11:53 AM 28.4 °F 17.0 °F 15.3 °F 58% 30.20 in 10.0 mi WNW 15.0 mph 18.4 mph N/A   Scattered Clouds
12:13 PM 27.1 °F 16.4 °F 14.2 °F 58% 30.19 in 10.0 mi West 12.7 mph 17.3 mph N/A   Mostly Cloudy
12:33 PM 28.9 °F 18.2 °F 14.4 °F 55% 30.19 in 10.0 mi WNW 13.8 mph - N/A   Scattered Clouds
12:53 PM 29.1 °F 17.5 °F 12.7 °F 50% 30.18 in 10.0 mi West 16.1 mph 23.0 mph N/A   Scattered Clouds
1:13 PM 30.2 °F 19.3 °F 14.9 °F 53% 30.18 in 10.0 mi West 15.0 mph 18.4 mph N/A   Mostly Cloudy
1:33 PM 27.5 °F 16.3 °F 12.6 °F 54% 30.18 in 10.0 mi West 13.8 mph - N/A   Mostly Cloudy
1:53 PM 28.0 °F 17.5 °F 13.8 °F 55% 30.19 in 10.0 mi West 12.7 mph - N/A   Mostly Cloudy
2:13 PM 27.9 °F 17.3 °F 13.8 °F 56% 30.18 in 10.0 mi West 12.7 mph - N/A   Mostly Cloudy
2:33 PM 28.6 °F 18.2 °F 12.6 °F 51% 30.19 in 10.0 mi West 12.7 mph 18.4 mph N/A   Scattered Clouds
2:53 PM 26.6 °F 16.2 °F 13.6 °F 58% 30.19 in 10.0 mi West 11.5 mph 17.3 mph N/A   Mostly Cloudy
3:13 PM 27.1 °F 16.4 °F 13.1 °F 56% 30.19 in 10.0 mi West 12.7 mph 18.4 mph N/A   Mostly Cloudy
3:33 PM 27.3 °F 18.4 °F 13.5 °F 56% 30.19 in 10.0 mi West 9.2 mph - N/A   Mostly Cloudy
3:53 PM 26.6 °F 15.2 °F 12.0 °F 54% 30.20 in 10.0 mi West 13.8 mph 20.7 mph N/A   Scattered Clouds
4:13 PM 27.3 °F 16.6 °F 13.1 °F 55% 30.20 in 10.0 mi West 12.7 mph 16.1 mph N/A   Scattered Clouds
4:33 PM 26.1 °F 15.6 °F 12.0 °F 55% 30.21 in 10.0 mi West 11.5 mph - N/A   Scattered Clouds
4:53 PM 25.0 °F 15.5 °F 12.2 °F 58% 30.22 in 10.0 mi West 9.2 mph - N/A   Clear
5:13 PM 24.6 °F 15.1 °F 12.4 °F 60% 30.23 in 10.0 mi West 9.2 mph 16.1 mph N/A   Scattered Clouds
5:33 PM 23.9 °F 16.8 °F 12.2 °F 61% 30.24 in 10.0 mi West 5.8 mph - N/A   Scattered Clouds
5:53 PM 23.5 °F 16.4 °F 12.6 °F 63% 30.25 in 10.0 mi West 5.8 mph - N/A   Scattered Clouds
6:13 PM 23.0 °F 14.7 °F 12.4 °F 64% 30.26 in 10.0 mi West 6.9 mph - N/A   Scattered Clouds
6:33 PM 22.6 °F 14.3 °F 13.1 °F 67% 30.27 in 10.0 mi WSW 6.9 mph - N/A   Mostly Cloudy
6:53 PM 22.8 °F 15.5 °F 13.1 °F 66% 30.27 in 10.0 mi West 5.8 mph - N/A   Mostly Cloudy
7:13 PM 22.6 °F 18.0 °F 13.1 °F 67% 30.28 in 10.0 mi West 3.5 mph - N/A   Scattered Clouds
7:33 PM 22.6 °F 16.5 °F 13.1 °F 67% 30.29 in 10.0 mi West 4.6 mph - N/A   Scattered Clouds
7:53 PM 22.6 °F 16.5 °F 13.1 °F 67% 30.29 in 10.0 mi West 4.6 mph - N/A   Scattered Clouds
8:13 PM 22.1 °F 15.9 °F 12.9 °F 68% 30.30 in 10.0 mi West 4.6 mph - N/A   Clear
8:33 PM 18.9 °F 13.7 °F 13.5 °F 79% 30.30 in 10.0 mi WSW 3.5 mph - N/A   Scattered Clouds
8:53 PM 17.6 °F 12.3 °F 13.5 °F 84% 30.30 in 10.0 mi SW 3.5 mph - N/A   Clear
9:13 PM 17.4 °F 10.4 °F 13.1 °F 83% 30.30 in 10.0 mi SSW 4.6 mph - N/A   Clear
9:33 PM 16.7 °F 9.6 °F 13.1 °F 86% 30.30 in 10.0 mi SW 4.6 mph - N/A   Clear
9:53 PM 16.3 °F 7.8 °F 12.7 °F 86% 30.30 in 10.0 mi SSW 5.8 mph - N/A   Clear
10:13 PM 16.0 °F 7.4 °F 12.9 °F 88% 30.30 in 10.0 mi SSW 5.8 mph - N/A   Clear
10:33 PM 16.7 °F 9.6 °F 13.5 °F 87% 30.31 in 10.0 mi SSW 4.6 mph - N/A   Clear
10:53 PM 17.1 °F - 13.1 °F 84% 30.31 in 10.0 mi Calm Calm - N/A   Mostly Cloudy
11:13 PM 18.3 °F 13.1 °F 13.8 °F 83% 30.31 in 10.0 mi SW 3.5 mph - N/A   Scattered Clouds
11:33 PM 17.6 °F 12.3 °F 13.5 °F 84% 30.31 in 10.0 mi West 3.5 mph - N/A   Clear
11:53 PM 17.2 °F 11.9 °F 13.5 °F 85% 30.32 in 10.0 mi WSW 3.5 mph - N/A   Clear